Location: La Ronge
(55.1000°N, 105.3000°W)
Time: 18:16:49
(UTC-06:00)

Daily predictions for brighter satellites

Satellite Brightness Start Highest point End
(mag) Time Altitude Azimuth Time Altitude Azimuth Time Altitude Azimuth
Cosmos 1825 4.4 18:58:50 10° SW 19:02:12 29° WNW 19:05:35 10° N
Meteor 1-25 Rocket 4.3 18:59:25 10° S 19:04:55 57° E 19:10:32 10° NNE
Cosmos 2360 Rocket 2.2 18:59:57 10° NNW 19:05:40 84° NE 19:11:21 10° SE
Cosmos 1315 Rocket 4.4 19:02:10 10° SW 19:05:52 39° WNW 19:09:36 10° N
Cosmos 2219 Rocket 2.8 19:01:57 10° NNW 19:07:09 37° NE 19:12:20 10° ESE
RESURS DK-1 3.6 19:04:10 10° WSW 19:08:07 41° NW 19:12:05 10° NNE
Cosmos 1818 4.5 19:04:10 10° S 19:08:51 30° ESE 19:13:34 10° ENE
Cosmos 407 Rocket 3.9 19:05:20 10° S 19:10:17 43° ESE 19:15:20 10° NE
Cosmos 1570 Rocket 4.1 19:09:14 10° NNW 19:14:24 55° NE 19:19:32 10° SE
Nadezhda 1 Rocket 4.3 19:12:52 10° NNW 19:18:57 71° W 19:24:59 10° S
Cosmos 1782 Rocket 4.1 19:17:27 10° SSW 19:21:53 67° WNW 19:26:23 10° N
SL-16 R/B 3.5 19:18:35 10° NNW 19:23:08 24° NNE 19:27:20 11° ENE
Meteor 1-11 Rocket 4.4 19:19:58 10° SSE 19:25:13 36° E 19:30:34 10° NNE
Cosmos 1602 4.4 19:24:39 10° SSE 19:28:09 32° E 19:31:42 10° NNE
BREEZE-M DEB (TANK) 4.1 19:26:31 10° WSW 19:28:57 30° S 19:33:45 10° ESE
COSMO-SKYMED 1 2.6 19:24:58 10° NNE 19:29:21 86° ESE 19:33:42 10° SSW
Cosmos 1140 Rocket 4.2 19:25:26 10° SSE 19:29:50 29° ESE 19:34:17 10° NE
Resurs 01 Rocket 1.8 19:26:29 10° SE 19:30:46 51° ENE 19:35:03 10° N
Cosmos 1300 Rocket 4.1 19:27:30 10° SSE 19:31:33 36° E 19:35:40 10° NNE
Thor Agena Rocket 3.8 19:26:48 10° NNE 19:31:53 71° WNW 19:36:53 10° SSW
DMSP B5D1-3 4.5 19:28:11 10° NNE 19:33:20 68° ESE 19:38:28 10° S
Cosmos 1190 Rocket 3.9 19:32:43 10° SSW 19:37:54 75° ESE 19:43:07 10° NNE
Cosmos 1340 2.9 19:34:07 10° NNW 19:37:56 75° W 19:41:43 10° S
Cosmos 2181 Rocket 4.0 19:32:53 10° N 19:39:09 82° E 19:45:28 10° SSE
ALOS 2.2 19:35:04 10° SSE 19:39:43 74° ENE 19:44:25 10° NNW
Cosmos 2333 Rocket 2.6 19:35:34 10° NNW 19:41:08 48° NE 19:46:14 12° ESE
FREGAT/IRIS 3.0 19:38:11 10° S 19:41:16 70° WSW 19:44:23 10° NNW
Cosmos 2208 Rocket 4.1 19:35:58 10° NNW 19:41:29 77° ENE 19:46:55 10° SSE
SL-16 R/B 4.3 19:37:14 10° NW 19:42:06 30° WSW 19:46:55 10° SSW
Cosmos 2082 Rocket 3.7 19:39:22 10° WSW 19:44:33 34° NW 19:49:46 10° NNE
NOSS 5 (C) 4.2 19:42:08 10° SW 19:45:18 81° NW 19:47:52 14° NE
Spot 2 Rocket 3.5 19:40:46 10° SSE 19:45:48 69° ENE 19:50:53 10° NNW
Helios 1A 3.4 19:42:00 10° SE 19:45:53 41° ENE 19:49:49 10° N
USA 229 DEB 3.8 19:39:30 10° NW 19:46:37 89° SW 19:53:52 10° SE
Okean 2 Rocket 4.0 19:42:17 10° SSW 19:46:37 52° WNW 19:50:59 10° N
USA 229 3.8 19:39:36 10° NW 19:46:43 89° SW 19:53:57 10° SE
Resurs 1-3 3.6 19:44:08 10° SSE 19:48:28 62° ENE 19:52:49 10° N
Cosmos 1980 4.1 19:43:27 10° NNW 19:48:54 45° NE 19:53:08 16° ESE
Helios 1B rocket 3.7 19:47:51 10° NE 19:50:56 20° E 19:51:12 20° E
Meteor 1-28 Rocket 3.6 19:47:44 10° N 19:51:32 67° WNW 19:55:20 10° SSW
Okean 2 3.8 19:50:36 10° N 19:54:34 40° ENE 19:58:13 12° SE
NOSS 3-4 (A) 4.3 19:49:52 10° W 19:56:08 49° NNW 20:02:36 11° NE
NOSS 3-4 (C) 4.3 19:49:58 10° W 19:56:15 49° NNW 20:02:43 11° NE
USA 186 2.2 19:56:00 27° ESE 19:56:53 33° ENE 19:59:32 10° N
CZ-4B DEB 3.6 19:56:49 27° E 19:57:29 30° ENE 20:00:16 10° N
Aureole 2 Rocket 4.3 19:55:15 10° N 19:57:42 17° NE 19:58:06 16° NE
Genesis I 4.3 19:54:37 10° NW 19:58:25 44° SW 20:02:09 10° SSE
NOSS 3-1 (A) 4.0 19:52:03 10° NW 19:59:03 63° NNE 20:04:58 19° ESE
HJ-1C 3.6 19:56:17 10° S 19:59:39 72° WSW 20:03:03 10° NNW
NOSS 2-2 (E) 4.1 19:55:19 10° WSW 19:59:44 71° NW 20:05:17 10° NE
Cosmos 1709 Rocket 3.9 19:55:35 10° S 20:01:48 84° E 20:07:59 10° NNE
Cosmos 2074 Rocket 4.3 19:56:08 10° SSE 20:02:01 44° E 20:07:57 10° NNE
Envisat 3.5 19:58:41 16° ESE 20:02:14 38° ENE 20:06:55 10° N
SJ-6B 3.9 19:59:13 10° S 20:03:04 48° W 20:06:52 10° NNW
Cosmos 1892 Rocket 3.9 19:59:37 10° N 20:03:45 40° ENE 20:06:29 19° SE
SAR-Lupe-1 4.1 20:00:38 11° SSE 20:03:57 57° ENE 20:07:29 10° N
ATLAS 2AS CENTAUR R/B 3.6 19:56:39 10° WNW 20:04:30 48° N 20:10:18 19° ENE
Cosmos 1954 Rocket 3.9 19:59:27 10° SSW 20:04:36 64° ESE 20:09:50 10° NNE
Cosmos 2184 Rocket 4.2 19:59:07 10° SSE 20:05:03 45° E 20:10:56 10° NNE
USA 215 3.3 19:59:49 16° ENE 20:05:12 84° NNW 20:11:45 10° W
FengYun 1-2 T 4.4 20:00:10 10° SSE 20:05:40 76° WSW 20:11:14 10° NNW
Cosmos 2151 Rocket 4.1 20:01:15 10° SSW 20:05:45 66° WNW 20:10:17 10° N
Okean 1 Rocket 3.1 20:02:01 10° S 20:06:26 58° E 20:10:51 10° NNE
ERS-1 Rocket 3.8 20:05:25 23° E 20:07:22 30° ENE 20:11:44 10° N
SAR-Lupe-4 3.4 20:05:14 10° SSE 20:08:48 74° ENE 20:12:24 10° NNW
FENGYUN 3A 4.0 20:07:21 10° S 20:12:45 67° WSW 20:18:11 10° NNW
Cosmos 1238 Rocket 3.9 20:10:33 10° NNW 20:13:27 35° W 20:16:10 10° SSW
BREEZE-M DEB (TANK) 4.4 20:12:29 10° SW 20:14:15 15° SSW 20:16:53 10° SSE
TSX-5 3.3 20:11:08 10° SSW 20:14:16 61° ESE 20:15:49 29° NE
Cosmos 1515 4.4 20:11:38 10° N 20:15:12 33° ENE 20:15:32 33° E
Nadezhda 3 Rocket 4.2 20:10:33 10° N 20:16:32 49° ENE 20:21:25 15° SE
Cosmos 405 Rocket 2.9 20:14:08 10° N 20:18:12 55° ENE 20:20:17 26° SE
SPOT 5 4.2 20:17:55 22° ENE 20:18:35 23° NE 20:22:31 10° N
Cosmos 1025 Rocket 3.0 20:14:13 10° NNW 20:18:37 90° ESE 20:23:01 10° S
NOSS 3-1 (C) 3.9 20:11:37 10° NW 20:18:46 79° NE 20:24:22 22° ESE
NOSS 2-2 (D) 4.3 20:16:25 10° WSW 20:20:47 61° NNW 20:25:28 14° NE
GEOS 3 Rocket 4.1 20:20:50 26° E 20:23:01 37° SE 20:27:53 10° SSW
CZ-2D R/B 3.3 20:20:07 10° SSE 20:23:56 79° WSW 20:27:47 10° NNW
ATLAS CENTAUR R/B 3.2 20:20:53 10° WNW 20:24:27 25° NNW 20:27:02 14° NE
H-2A R/B 3.7 20:24:22 18° NE 20:24:51 18° NE 20:28:23 10° N
Okean 1-7 Rocket 4.1 20:20:50 10° NNW 20:25:22 64° W 20:29:49 10° S
Cosmos 2285 Rocket 4.1 20:19:00 10° NNW 20:25:29 83° WSW 20:31:55 10° SSE
Cosmos 1939 Rocket 3.2 20:24:56 39° E 20:25:30 42° ENE 20:29:18 10° N
H-2A R/B 3.4 20:25:27 10° S 20:29:07 54° W 20:32:50 10° NNW
Cosmos 1536 2.6 20:26:34 10° S 20:30:33 81° E 20:34:34 10° NNE
COSMOS 2428 3.4 20:25:09 10° NW 20:30:41 54° WSW 20:36:13 10° S
Meteor 2-4 Rocket 4.3 20:27:22 10° NNW 20:32:53 58° W 20:38:13 10° S
Cosmos 1633 3.5 20:29:58 10° SSW 20:33:35 51° WNW 20:37:13 10° N
Cosmos 2154 Rocket 4.4 20:28:12 10° SSE 20:34:04 41° E 20:39:57 10° NNE
Cosmos 2237 Rocket 2.1 20:29:03 10° NNW 20:34:48 74° NE 20:37:44 30° SE
Cosmos 1066 Rocket 4.4 20:29:28 10° N 20:35:02 48° ENE 20:37:04 34° ESE
Cosmos 841 Rocket 3.7 20:34:39 10° NNW 20:39:43 51° NE 20:41:01 41° E
Cosmos 1023 Rocket 4.4 20:35:32 10° SSW 20:40:40 89° WNW 20:45:53 10° NNE
Cosmos 1602 Rocket 4.2 20:39:13 10° N 20:42:55 37° NE 20:42:55 37° NE
SL-08 ROCKET BODY 4.4 20:39:48 10° S 20:46:00 88° ESE 20:52:15 10° NNE
YAOGAN 6 4.1 20:47:47 24° NNE 20:47:47 24° NNE 20:49:38 10° N
Cosmos 1741 Rocket 3.9 20:43:01 10° SSW 20:48:13 71° ESE 20:53:26 10° NNE
NOSS 0 Rocket 4.0 20:42:17 10° NW 20:48:28 75° WSW 20:52:27 23° SSE
Cosmos 1626 Rocket 4.0 20:45:24 10° N 20:49:17 43° NE 20:49:17 43° NE
Cosmos 1441 Rocket 3.4 20:47:14 10° N 20:50:46 55° NE 20:50:46 55° NE
ARGOS 3.9 20:50:59 34° ENE 20:51:11 34° ENE 20:56:01 10° N
Cosmos 2219 Rocket 2.5 20:45:55 10° NW 20:51:28 63° WSW 20:55:22 20° SSE
Cosmos 1818 3.7 20:46:35 10° SW 20:52:03 76° NW 20:55:44 22° NE
Cosmos 1763 Rocket 3.3 20:48:01 10° NNW 20:53:09 72° ENE 20:54:29 49° SE
Cosmos 332 Rocket 3.7 20:52:49 10° NNW 20:57:45 68° ENE 20:58:28 59° ESE
Cosmos 2219 3.1 20:52:34 10° SSW 20:58:15 64° ESE 21:03:45 11° NE
SPOT 1/Viking Rocket 4.4 21:05:23 34° NE 21:05:23 34° NE 21:09:29 10° N
Cosmos 540 Rocket 3.9 21:00:57 10° NNW 21:05:44 42° NE 21:05:44 42° NE
Resurs 01 Rocket 3.8 21:03:49 10° SSW 21:07:30 26° W 21:11:13 10° NW
Cosmos 1437 3.8 21:04:43 10° NNW 21:07:13 44° NW 21:07:13 44° NW
SL-16 R/B 2.2 21:02:40 10° NNW 21:08:21 64° NE 21:09:14 56° E
Cosmos 371 Rocket 3.2 21:04:08 10° NNW 21:09:02 67° ENE 21:09:09 66° ENE
Cosmos 962 Rocket 4.5 21:08:36 50° ESE 21:09:24 53° E 21:15:21 10° NNE
MetOp-B 4.2 21:09:25 55° ENE 21:09:40 55° ENE 21:14:55 10° N
Cosmos 1140 Rocket 4.0 21:06:18 10° SW 21:11:23 57° WNW 21:16:31 10° NNE
Cosmos 1943 4.4 21:10:38 10° NNW 21:15:27 27° NNE 21:15:57 27° NE
Cosmos 614 Rocket 4.3 21:13:50 10° SW 21:18:52 62° WNW 21:23:56 10° NNE
Cosmos 1610 Rocket 4.4 21:15:33 10° SSW 21:21:47 83° WNW 21:27:59 10° N
Cosmos 2333 Rocket 3.1 21:20:00 10° NW 21:25:28 46° WSW 21:28:17 26° S
NOAA 11 4.1 21:25:33 66° ENE 21:25:33 66° ENE 21:30:54 10° NNW
Helios 1B rocket 2.9 21:22:30 10° N 21:26:38 61° WNW 21:27:39 45° SW
USA 186 4.3 21:27:24 18° W 21:27:36 18° W 21:29:43 10° NW
Meteor 2-8 Rocket 4.3 21:22:09 10° NNW 21:28:15 87° WSW 21:30:00 50° S
USA 32 4.0 21:23:31 10° N 21:28:47 79° W 21:29:45 59° SSW
Terra 3.6 21:34:23 21° NNE 21:34:23 21° NNE 21:36:26 10° N
Cosmos 1980 4.4 21:27:40 10° NW 21:33:06 48° WSW 21:35:02 34° SSW
Aureole 2 Rocket 4.4 21:30:06 10° NNW 21:31:55 27° NNW 21:31:55 27° NNW
H-2A R/B 3.9 21:43:03 23° N 21:43:03 23° N 21:44:50 10° N
Envisat 4.0 21:38:54 27° SSW 21:41:14 43° W 21:46:07 10° NNW
ERS-1 Rocket 3.4 21:45:24 54° SW 21:45:55 57° WSW 21:50:56 10° NNW
USA 215 3.2 21:47:09 64° ENE 21:48:10 79° N 21:54:44 10° WNW
NOSS 3-4 (A) 4.4 21:42:03 10° WNW 21:48:20 43° N 21:50:02 37° NE
NOSS 3-4 (C) 4.4 21:42:09 10° WNW 21:48:27 43° N 21:50:10 37° NE
Meteor 1-12 Rocket 4.2 21:49:31 80° SSW 21:49:53 87° WNW 21:55:50 10° NNE
NOSS 3-1 (A) 4.3 21:43:03 10° NW 21:50:14 60° SW 21:52:26 46° S
SL-8 Rocket 4.4 21:55:12 49° NE 21:55:12 49° NE 21:59:50 10° NNE
MetOp-A 4.3 21:55:52 70° W 21:55:52 70° W 22:01:00 10° NNW
SPOT 5 3.5 21:57:09 56° NNW 21:57:09 56° NNW 22:01:15 10° NNW
ATLAS 2AS CENTAUR R/B 2.9 21:48:25 10° NW 21:56:38 76° NE 21:57:44 66° E
Cosmos 1295 Rocket 4.4 21:57:50 77° NNE 21:57:50 77° NNE 22:03:42 10° NNE
GEOS 3 Rocket 3.9 22:01:57 63° W 22:01:57 63° W 22:06:35 10° WSW
H-2A R/B 2.9 22:05:00 45° N 22:05:00 45° N 22:08:49 10° NNW
ATLAS CENTAUR R/B 3.7 22:01:18 10° NW 22:03:20 19° NNW 22:03:20 19° NNW
Cosmos 2341 Rocket 4.3 22:11:38 44° SW 22:13:37 65° WNW 22:20:00 10° N
Cosmos 1603 4.3 22:12:06 10° NNW 22:16:22 52° NNW 22:16:22 52° NNW
Cosmos 2237 Rocket 3.8 22:13:42 10° NW 22:18:24 27° WSW 22:19:36 25° SW
Cosmos 1727 Rocket 4.3 22:20:43 10° NNW 22:26:15 66° NW 22:26:15 66° NW
ARGOS 4.1 22:32:29 45° WNW 22:32:29 45° WNW 22:36:35 10° NNW
SL-16 R/B 3.8 22:47:13 10° NW 22:51:08 29° W 22:51:08 29° W
Terra 4.3 23:13:15 19° NNW 23:13:15 19° NNW 23:14:38 10° NNW
Cosmos 2082 Rocket 4.4 23:12:53 10° NNW 23:16:32 18° NNE 23:16:32 18° NNE
H-2A R/B 4.4 23:45:38 20° NW 23:45:38 20° NW 23:47:49 10° NW
ATLAS 2AS CENTAUR R/B 4.1 23:39:49 10° NW 23:45:11 37° W 23:45:11 37° W
